Regional Weather Roundup
Issued by NWS

Home | Current Version | Previous Version | Text Only | Print | Product List | Glossary On
Versions: 1 2 3 4 5 6 7 8 9 10 11 12 13 14 15 16 17 18 19 20 21 22 23 24 25 26 27 28 29 30 31 32 33 34 35 36 37 38 39 40 41 42 43 44 45 46 47 48 49 50
000
ASUS43 KTOP 230008
RWRKS

WEATHER ROUNDUP FOR KANSAS
NATIONAL WEATHER SERVICE GOODLAND KS
700 PM CDT SAT APR 22 2017

NOTE:  "FAIR" INDICATES FEW OR NO CLOUDS BELOW 12,000 FEET WITH NO
SIGNIFICANT WEATHER AND/OR OBSTRUCTIONS TO VISIBILITY.

KSZ001>006-013>018-027>032-041>047-230100-
NORTHWEST KANSAS

CITY           SKY/WX    TMP DP  RH WIND       PRES   REMARKS
GOODLAND       MOSUNNY   57  30  35 NE3       30.24S
6HR MIN TEMP:  50; 6HR MAX TEMP:  58;

HAYS           MOSUNNY   59  32  36 N10       30.22S
HILL CITY      SUNNY     62  28  27 N5        30.23S
6HR MIN TEMP:  56; 6HR MAX TEMP:  64;

RUSSELL        MOSUNNY   62  31  31 N12       30.20R
6HR MIN TEMP:  56; 6HR MAX TEMP:  64;

$$

KSZ061>065-074>080-084>089-230100-
SOUTHWEST KANSAS

CITY           SKY/WX    TMP DP  RH WIND       PRES   REMARKS
DODGE CITY     MOSUNNY   58  32  37 NE9       30.23F
6HR MIN TEMP:  52; 6HR MAX TEMP:  60;

ELKHART          N/A     55  32  41 N8          N/A
GARDEN CITY    PTSUNNY   56  31  38 N7        30.24F
6HR MIN TEMP:  52; 6HR MAX TEMP:  58;

GREAT BEND     MOSUNNY   59  36  42 N12       30.21S
LIBERAL        MOSUNNY   57  30  35 NE14      30.25S
PRATT          MOSUNNY   57  33  40 N12       30.21S
6HR MIN TEMP:  52; 6HR MAX TEMP:  58;

$$

KSZ066>073-081>083-090>101-230100-
SOUTHEAST KANSAS

CITY           SKY/WX    TMP DP  RH WIND       PRES   REMARKS
CHANUTE        CLOUDY    58  43  57 CALM      30.09S
6HR MIN TEMP:  54; 6HR MAX TEMP:  60;

COFFEYVILLE    CLOUDY    55  45  68 SE3       30.11S
6HR MIN TEMP:  52; 6HR MAX TEMP:  58; 6HR PCP: TRACE;

HUTCHINSON     SUNNY     62  33  33 N14G22    30.17S
6HR MIN TEMP:  55; 6HR MAX TEMP:  64;

MEDICINE LODGE   N/A     59  35  40 N14G24    30.19S
NEWTON         CLOUDY    59  40  49 N10       30.16R
PARSONS        CLOUDY    53  47  79 CALM      30.11S
6HR MIN TEMP:  51; 6HR MAX TEMP:  58; 6HR PCP:  0.01;

WICHITA INTL   CLOUDY    61  36  39 N14       30.14S
6HR MIN TEMP:  53; 6HR MAX TEMP:  61;

WICHITA JABRA  CLOUDY    59  38  45 N13       30.14S
6HR MIN TEMP:  53; 6HR MAX TEMP:  63;

WICHITA MCCONL CLOUDY    60  35  39 N12G17    30.14S
WINFIELD       CLOUDY    59  40  49 N10       30.14S
6HR MIN TEMP:  53; 6HR MAX TEMP:  60;

$$

KSZ007>012-019>026-033>040-048>060-102>105-230100-
NORTHEAST KANSAS

CITY           SKY/WX    TMP DP  RH WIND       PRES   REMARKS
CONCORDIA      SUNNY     62  33  33 N9        30.19S
6HR MIN TEMP:  57; 6HR MAX TEMP:  64;

EMPORIA        SUNNY     61  34  36 N15       30.12S
6HR MIN TEMP:  57; 6HR MAX TEMP:  64;

LAWRENCE       SUNNY     64  34  32 N10       30.13R
6HR MIN TEMP:  63; 6HR MAX TEMP:  67;

MANHATTAN      SUNNY     64  32  30 N12       30.15S
6HR MIN TEMP:  60; 6HR MAX TEMP:  66;

MARYSVILLE     SUNNY     63  32  31 NE12      30.16F
OLATHE IND     SUNNY     61  30  31 N16G24    30.12R
6HR MIN TEMP:  59; 6HR MAX TEMP:  66;

OLATHE EXE     SUNNY     61  28  28 N13       30.11R
6HR MIN TEMP:  59; 6HR MAX TEMP:  66;

SALINA         SUNNY     64  32  30 N15       30.18S
6HR MIN TEMP:  61; 6HR MAX TEMP:  67;

TOPEKA BILLARD SUNNY     63  33  32 N13G24    30.14R
6HR MIN TEMP:  62; 6HR MAX TEMP:  66;

TOPEKA FORBES  SUNNY     64  31  28 N14       30.13S
6HR MIN TEMP:  63; 6HR MAX TEMP:  68;

$$



USA.gov is the U.S. government's official web portal to all federal, state and local government web resources and services.